This demonstration page uses our WeatherBlox Daily Observations layout. Learn more.

Left ArrowRight Arrow

Hourly Observations for September 25, 2020

Temp ( °F °C ) Dew Point ( °F °C ) Humidity (%) Winds ( mph kmh ) Pressure ( in mb ) Visibility ( mi km ) Precip ( " mm )
12:15 am 00:15 Clear 55 13 55 13 100 100 Calm 30.07 1018 10 16 0.00 0.00
12:35 am 00:35 Clear 55 13 55 13 100 100 SW 3 6 30.07 1018 10 16 0.00 0.00
12:55 am 00:55 Clear 55 13 55 13 100 100 SSW 3 6 30.06 1018 10 16 0.00 0.00
1:15 am 01:15 Clear 55 13 55 13 100 100 SSW 3 6 30.06 1018 10 16 0.00 0.00
1:35 am 01:35 Clear 55 13 55 13 100 100 Calm 30.06 1018 10 16 0.00 0.00
1:55 am 01:55 Clear 55 13 55 13 100 100 Calm 30.07 1018 10 16 0.00 0.00
2:15 am 02:15 Clear 54 12 54 12 100 100 Calm 30.07 1018 10 16 0.00 0.00
2:35 am 02:35 Clear 54 12 54 12 100 100 Calm 30.06 1018 10 16 0.00 0.00
2:55 am 02:55 Clear 54 12 54 12 100 100 Calm 30.05 1018 10 16 0.00 0.00
3:15 am 03:15 Clear 54 12 54 12 100 100 Calm 30.06 1018 10 16 0.00 0.00
3:35 am 03:35 Clear 52 11 52 11 100 100 Calm 30.06 1018 10 16 0.00 0.00
3:55 am 03:55 Clear 52 11 52 11 100 100 Calm 30.05 1018 10 16 0.00 0.00
4:15 am 04:15 Clear 52 11 52 11 100 100 Calm 30.06 1018 10 16 0.00 0.00
4:35 am 04:35 Mostly Cloudy 52 11 52 11 100 100 Calm 30.06 1018 10 16 0.00 0.00
4:55 am 04:55 Cloudy 52 11 52 11 100 100 Calm 30.07 1018 10 16 0.00 0.00
5:15 am 05:15 Cloudy 52 11 52 11 100 100 Calm 30.08 1019 1 2 0.00 0.00
5:35 am 05:35 Cloudy 52 11 52 11 100 100 Calm 30.09 1019 1 1 0.00 0.00
5:55 am 05:55 Cloudy 52 11 52 11 100 100 S 3 6 30.08 1019 0 0 0.00 0.00
6:15 am 06:15 Cloudy 52 11 52 11 100 100 Calm 30.10 1019 1 1 0.00 0.00
6:35 am 06:35 Cloudy 52 11 52 11 100 100 Calm 30.10 1019 0 0 0.00 0.00
6:55 am 06:55 Cloudy 52 11 52 11 100 100 Calm 30.11 1020 0 0 0.00 0.00
7:15 am 07:15 Cloudy 52 11 52 11 100 100 Calm 30.11 1020 1 1 0.00 0.00
7:35 am 07:35 Cloudy 52 11 52 11 100 100 Calm 30.11 1020 1 1 0.00 0.00
7:55 am 07:55 Cloudy 52 11 52 11 100 100 Calm 30.11 1020 3 5 0.00 0.00
8:15 am 08:15 Cloudy 52 11 52 11 100 100 Calm 30.12 1020 1 1 0.00 0.00
8:35 am 08:35 Cloudy 52 11 52 11 100 100 SE 3 6 30.13 1020 N/A 0.00 0.00
8:55 am 08:55 Cloudy 52 11 52 11 100 100 Calm 30.12 1020 N/A 0.00 0.00
9:15 am 09:15 Cloudy 52 11 52 11 100 100 Calm 30.13 1020 0 0 0.00 0.00
9:35 am 09:35 Cloudy 54 12 54 12 100 100 Calm 30.14 1021 0 0 0.00 0.00
9:55 am 09:55 Cloudy 54 12 54 12 100 100 S 3 6 30.15 1021 0 0 0.00 0.00
10:15 am 10:15 Cloudy 54 12 54 12 100 100 Calm 30.15 1021 0 0 0.00 0.00
10:35 am 10:35 Cloudy 54 12 54 12 100 100 W 5 7 30.16 1021 1 1 0.00 0.00
10:55 am 10:55 Cloudy 54 12 54 12 100 100 Calm 30.16 1021 2 3 0.00 0.00
11:15 am 11:15 Cloudy 54 12 54 12 100 100 S 3 6 30.15 1021 5 8 0.00 0.00
11:35 am 11:35 Cloudy 54 12 54 12 100 100 SSE 3 6 30.15 1021 5 8 0.00 0.00
11:55 am 11:55 Cloudy 55 13 55 13 100 100 SSW 5 7 30.14 1021 10 16 0.00 0.00
12:15 pm 12:15 Cloudy 55 13 55 13 100 100 Calm 30.15 1021 10 16 0.00 0.00
12:35 pm 12:35 Cloudy 57 14 55 13 94 94 SW 3 6 30.14 1021 10 16 0.00 0.00
12:55 pm 12:55 Mostly Cloudy 59 15 55 13 88 88 S 3 6 30.14 1021 10 16 0.00 0.00
1:15 pm 13:15 Partly Cloudy 61 16 57 14 88 88 S 6 9 30.13 1020 10 16 0.00 0.00
1:35 pm 13:35 Partly Cloudy 63 17 55 13 77 77 SSW 6 9 30.13 1020 10 16 0.00 0.00
1:55 pm 13:55 Sunny 63 17 55 13 77 77 S 5 7 30.11 1019 10 16 0.00 0.00
2:15 pm 14:15 Sunny 63 17 55 13 77 77 SSW 7 11 30.11 1019 10 16 0.00 0.00
2:35 pm 14:35 Partly Cloudy 64 18 55 13 73 73 SSW 3 6 30.10 1019 10 16 0.00 0.00
2:55 pm 14:55 Mostly Cloudy 64 18 55 13 73 73 S 7 11 30.09 1019 10 16 0.00 0.00
3:15 pm 15:15 Mostly Cloudy 64 18 55 13 73 73 S 8 13 30.09 1019 10 16 0.00 0.00
3:35 pm 15:35 Cloudy 63 17 55 13 77 77 S 7 11 30.11 1019 10 16 0.00 0.00
4:15 pm 16:15 Cloudy 64 18 57 14 78 78 S 12 19 30.09 1019 10 16 0.00 0.00
4:35 pm 16:35 Cloudy 64 18 57 14 78 78 S 9 15 30.08 1019 10 16 0.00 0.00
4:55 pm 16:55 Cloudy 64 18 59 15 83 83 S 10 17 30.08 1019 10 16 0.00 0.00
5:35 pm 17:35 Partly Cloudy 63 17 59 15 88 88 S 7 11 30.10 1019 10 16 0.00 0.00
5:55 pm 17:55 Sunny 63 17 59 15 88 88 S 6 9 30.10 1019 10 16 0.00 0.00
6:15 pm 18:15 Sunny 63 17 57 14 83 83 SSW 5 7 30.10 1019 10 16 0.00 0.00
6:35 pm 18:35 Mostly Cloudy 63 17 59 15 88 88 SSW 3 6 30.11 1019 10 16 0.00 0.00
6:55 pm 18:55 Cloudy 63 17 59 15 88 88 S 5 7 30.11 1019 10 16 0.00 0.00
7:15 pm 19:15 Cloudy 63 17 59 15 88 88 SSE 3 6 30.10 1019 10 16 0.00 0.00
7:35 pm 19:35 Cloudy 61 16 59 15 94 94 Calm 30.11 1020 10 16 0.00 0.00
7:55 pm 19:55 Cloudy 61 16 59 15 94 94 Calm 30.11 1020 10 16 0.00 0.00
8:15 pm 20:15 Cloudy 61 16 59 15 94 94 SSE 3 6 30.11 1020 10 16 0.00 0.00
8:35 pm 20:35 Cloudy 61 16 61 16 100 100 SSE 5 7 30.11 1020 10 16 0.00 0.00
8:55 pm 20:55 Cloudy 61 16 59 15 94 94 SE 3 6 30.10 1019 10 16 0.00 0.00
9:15 pm 21:15 Mostly Cloudy 59 15 59 15 100 100 SE 6 9 30.10 1019 10 16 0.00 0.00
9:35 pm 21:35 Mostly Cloudy 59 15 59 15 100 100 Calm 30.10 1019 7 11 0.00 0.00
9:55 pm 21:55 Mostly Cloudy 59 15 59 15 100 100 ESE 3 6 30.10 1019 7 11 0.00 0.00
10:15 pm 22:15 Mostly Cloudy 59 15 59 15 100 100 Calm 30.10 1019 7 11 0.00 0.00
10:35 pm 22:35 Mostly Cloudy 57 14 57 14 100 100 SE 3 6 30.10 1019 7 11 0.00 0.00
10:55 pm 22:55 Partly Cloudy 57 14 57 14 100 100 Calm 30.10 1019 7 11 0.00 0.00
11:15 pm 23:15 Mostly Cloudy 57 14 57 14 100 100 Calm 30.11 1020 7 11 0.00 0.00
11:35 pm 23:35 Cloudy 57 14 57 14 100 100 Calm 30.10 1019 5 8 0.00 0.00
11:55 pm 23:55 Cloudy 57 14 57 14 100 100 Calm 30.10 1019 5 8 0.00 0.00

Powered by AerisWeather